| time (UTC) | temp C | wind direction | speed KPH | gust KPH | rain 1hr cm | rain 24hr cm | rain mn cm | humidity % | barometer mb |
| 20260504030027 | 5 | 249 | 0.0 | 0.0 | 0.00 | 0.00 | 0.00 | 72 | 1013.3 |
| 20260504024545 | 6 | 249 | 0.0 | 0.0 | 0.00 | 0.00 | 0.00 | 70 | 1013.5 |
| 20260504023012 | 6 | 249 | 0.0 | 0.0 | 0.00 | 0.00 | 0.00 | 68 | 1013.6 |
| 20260504021552 | 7 | 249 | 0.0 | 0.0 | 0.00 | 0.00 | 0.00 | 65 | 1013.6 |
| 20260504020020 | 7 | 249 | 0.0 | 0.0 | 0.00 | 0.00 | 0.00 | 63 | 1013.6 |
| 20260504014603 | 8 | 249 | 0.0 | 0.0 | 0.00 | 0.00 | 0.00 | 59 | 1013.6 |
| 20260504013025 | 10 | 249 | 0.0 | 0.0 | 0.00 | 0.00 | 0.00 | 55 | 1013.5 |
| 20260504011559 | 10 | 249 | 0.0 | 1.6 | 0.00 | 0.00 | 0.00 | 52 | 1013.4 |
| 20260504010015 | 11 | 249 | 0.0 | 3.2 | 0.00 | 0.00 | 0.00 | 50 | 1013.4 |
| 20260504004621 | 11 | 249 | 0.0 | 6.4 | 0.00 | 0.00 | 0.00 | 48 | 1013.4 |
| 20260504003027 | 11 | 248 | 3.2 | 8.0 | 0.00 | 0.00 | 0.00 | 48 | 1013.3 |
| 20260504001601 | 12 | 246 | 0.0 | 1.6 | 0.00 | 0.00 | 0.00 | 48 | 1013.4 |
| 20260504000104 | 12 | 263 | 0.0 | 8.0 | 0.00 | 0.00 | 0.00 | 46 | 1013.4 |
| 20260503234537 | 12 | 234 | 1.6 | 9.7 | 0.00 | 0.00 | 0.00 | 45 | 1013.3 |
| 20260503233101 | 12 | 240 | 1.6 | 8.0 | 0.00 | 0.00 | 0.00 | 45 | 1013.3 |
| 20260503231533 | 13 | 305 | 1.6 | 9.7 | 0.00 | 0.00 | 0.00 | 44 | 1013.4 |
| 20260503230111 | 13 | 228 | 1.6 | 14.5 | 0.00 | 0.00 | 0.00 | 43 | 1013.4 |
| 20260503224537 | 13 | 239 | 4.8 | 11.3 | 0.00 | 0.00 | 0.00 | 41 | 1013.4 |
| 20260503223005 | 13 | 219 | 3.2 | 9.7 | 0.00 | 0.00 | 0.00 | 42 | 1013.5 |
| 20260503221551 | 13 | 250 | 3.2 | 11.3 | 0.00 | 0.00 | 0.00 | 41 | 1013.5 |
| 20260503220015 | 14 | 264 | 4.8 | 14.5 | 0.00 | 0.00 | 0.00 | 39 | 1013.6 |
| 20260503214553 | 15 | 239 | 1.6 | 12.9 | 0.00 | 0.00 | 0.00 | 39 | 1013.5 |
| 20260503213018 | 15 | 245 | 3.2 | 14.5 | 0.00 | 0.00 | 0.00 | 39 | 1013.5 |
| 20260503211601 | 14 | 317 | 3.2 | 14.5 | 0.00 | 0.00 | 0.00 | 41 | 1013.5 |
| 20260503210028 | 14 | 205 | 4.8 | 14.5 | 0.00 | 0.00 | 0.00 | 40 | 1013.6 |
| 20260503204611 | 14 | 264 | 3.2 | 17.7 | 0.00 | 0.00 | 0.00 | 41 | 1013.8 |
| 20260503203023 | 13 | 219 | 1.6 | 12.9 | 0.00 | 0.00 | 0.00 | 41 | 1013.9 |
| 20260503201606 | 14 | 239 | 6.4 | 16.1 | 0.00 | 0.00 | 0.00 | 39 | 1014.1 |
| 20260503200028 | 14 | 306 | 8.0 | 16.1 | 0.00 | 0.00 | 0.00 | 41 | 1014.2 |
| 20260503194600 | 15 | 216 | 6.4 | 14.5 | 0.00 | 0.00 | 0.00 | 42 | 1014.6 |
| 20260503193033 | 13 | 199 | 8.0 | 22.5 | 0.00 | 0.00 | 0.00 | 43 | 1014.8 |
| 20260503191635 | 13 | 165 | 3.2 | 12.9 | 0.00 | 0.00 | 0.00 | 42 | 1015.0 |
| 20260503190040 | 13 | 263 | 4.8 | 12.9 | 0.00 | 0.00 | 0.00 | 44 | 1015.3 |
| 20260503184505 | 14 | 317 | 1.6 | 11.3 | 0.00 | 0.00 | 0.00 | 43 | 1015.4 |
| 20260503183057 | 13 | 255 | 3.2 | 14.5 | 0.00 | 0.00 | 0.00 | 43 | 1015.6 |
| 20260503181503 | 12 | 258 | 6.4 | 16.1 | 0.00 | 0.00 | 0.00 | 44 | 1015.8 |
| 20260503180044 | 13 | 266 | 3.2 | 12.9 | 0.00 | 0.00 | 0.00 | 46 | 1016.0 |
| 20260503174610 | 12 | 242 | 1.6 | 11.3 | 0.00 | 0.00 | 0.00 | 47 | 1016.2 |
| 20260503173103 | 12 | 236 | 4.8 | 11.3 | 0.00 | 0.00 | 0.00 | 47 | 1016.3 |
| 20260503171501 | 12 | 10 | 6.4 | 19.3 | 0.00 | 0.00 | 0.00 | 42 | 1016.5 |
| 20260503150107 | 9 | 242 | 3.2 | 16.1 | 0.00 | 0.03 | 0.00 | 52 | 1017.6 |
| 20260503120125 | 1 | 226 | 3.2 | 8.0 | 0.00 | 0.08 | 0.00 | 95 | 1017.8 |
| 20260503100106 | -2 | 360 | 0.0 | 0.0 | 0.00 | 0.08 | 0.00 | 94 | 1016.9 |
| 20260503081537 | -1 | 360 | 0.0 | 0.0 | 0.00 | 0.08 | 0.00 | 93 | 1016.7 |
| 20260503071618 | 0 | 360 | 0.0 | 0.0 | 0.00 | 0.08 | 0.00 | 93 | 1016.5 |
| 20260503054646 | 0 | 360 | 0.0 | 0.0 | 0.00 | 0.08 | 0.00 | 92 | 1016.7 |
| 20260503053039 | 0 | 360 | 0.0 | 0.0 | 0.00 | 0.08 | 0.00 | 92 | 1016.8 |
| 20260503051609 | 0 | 360 | 0.0 | 0.0 | 0.00 | 0.08 | 0.00 | 91 | 1016.8 |
| 20260503044529 | 0 | 360 | 0.0 | 0.0 | 0.00 | 0.08 | 0.00 | 91 | 1017.0 |
| 20260503043110 | 0 | 360 | 0.0 | 0.0 | 0.00 | 0.08 | 0.00 | 90 | 1017.0 |
| 20260503041536 | 0 | 360 | 0.0 | 0.0 | 0.00 | 0.08 | 0.00 | 89 | 1017.0 |
| 20260503040004 | 0 | 360 | 0.0 | 0.0 | 0.00 | 0.08 | 0.00 | 88 | 1017.0 |
| 20260503034603 | 0 | 360 | 0.0 | 0.0 | 0.00 | 0.08 | 0.08 | 87 | 1017.0 |
| 20260503033007 | 0 | 360 | 0.0 | 0.0 | 0.00 | 0.08 | 0.08 | 86 | 1016.9 |
| 20260503031550 | 1 | 360 | 0.0 | 0.0 | 0.00 | 0.08 | 0.08 | 85 | 1017.0 |